Flag Weather past 2 weeks in Burnaby, British Columbia, Canada

Now
54 °F

Mostly cloudy.


Feels Like: 49 °F
Forecast: 51 / 54 °F
Wind: 16 mph from Southeast

Location: Vancouver International Air-Port

Current Time: Nov 27, 2014 at 3:05:39 AM

Latest Report: Nov 27, 2014 at 2:00 AM


Visibility: 15 mi

Pressure: 29.73 "Hg

Humidity: 88%

Dew point: 50 °F

Location of BurnabyLocation

Historic Weather in Burnaby — Graph

°F

Burnaby temperature yesterday

Maximum temperature yesterday: 54 °F (at 7:00 PM)
Minimum temperature yesterday: 43 °F (at 12:00 AM)
Average temperature yesterday: 48 °F

Past Weeks' High & Low Weather Summary

 TemperatureHumidityPressure
High54 °F (Nov 26, 7:00 PM)100% (Nov 18, 3:00 AM)30.57 "Hg (Nov 18, 3:00 AM)
Low23 °F (Nov 14, 6:00 AM)25% (Nov 12, 12:00 PM)29.26 "Hg (Nov 21, 7:00 PM)
Average41 °F83%30.10 "Hg
* Reported Nov 12 2:00 AM — Nov 27 2:00 AM, Burnaby, Weather by CustomWeather, © 2014

Note: Actual official high and low records may vary slightly from our data, if they occured in-between our weather recording intervals... More about our weather records

Advertising

Burnaby weather history for previous 24 hours

 ConditionsComfort  
Time TempWeatherWind HumidityBarometerVisibility
2:00 AM
Nov 27
54 °FMostly cloudy.16 mph88%29.73 "Hg15 mi
1:00 AM54 °FLight rain. Mostly cloudy.14 mph88%29.74 "Hg15 mi
12:00 AM54 °FMostly cloudy.17 mph94%29.75 "Hg15 mi
11:00 PM
Nov 26
54 °FOvercast.15 mph94%29.75 "Hg15 mi
10:00 PM52 °FMostly cloudy.12 mph100%29.78 "Hg15 mi
9:00 PM52 °FLight rain. Mostly cloudy.12 mph100%29.79 "Hg10 mi
8:00 PM54 °FMostly cloudy.14 mph94%29.82 "Hg15 mi
7:00 PM54 °FLight rain. Mostly cloudy.14 mph94%29.85 "Hg12 mi
6:00 PM52 °FLight rain. Overcast.7 mph94%29.89 "Hg15 mi
5:45 PM52 °FLight rain. Mostly cloudy.9 mph94%29.89 "Hg15 mi
5:00 PM52 °FOvercast.9 mph94%29.91 "Hg15 mi
4:00 PM52 °FCloudy.9 mph94%29.95 "Hg15 mi
3:00 PM50 °FCloudy.10 mph100%29.96 "Hg15 mi
2:00 PM50 °FCloudy.12 mph100%29.97 "Hg15 mi
1:00 PM50 °FMostly cloudy.9 mph100%30.01 "Hg12 mi
12:00 PM50 °FMostly cloudy.9 mph94%30.03 "Hg10 mi
11:00 AM48 °FMostly cloudy.7 mph94%30.05 "Hg15 mi
10:00 AM46 °FLow clouds.8 mph100%30.04 "Hg12 mi
9:00 AM45 °FMostly cloudy.7 mph100%30.06 "Hg15 mi
8:00 AM43 °FMostly cloudy.7 mph100%30.08 "Hg15 mi
7:00 AM43 °FMostly cloudy.5 mph100%30.08 "Hg15 mi
6:00 AM43 °FMostly cloudy.5 mph100%30.09 "Hg12 mi
5:00 AM43 °FOvercast.8 mph93%30.09 "Hg10 mi
4:00 AM43 °FLight rain. Fog.5 mph93%30.12 "Hg8 mi
3:47 AM43 °FLight rain. Mostly cloudy.6 mph93%30.11 "Hg8 mi
3:00 AM43 °FLight rain. Mostly cloudy.3 mph93%30.13 "Hg8 mi
Weather by CustomWeather, © 2014

See weather overviewHow to use our weather pages